Weather History for Montrose, CO

Change the Weather History Date:

Friday, November 29, 2013

  Actual Average Record
Temperature  
Mean Temperature 28 °F 31 °F  
Max Temperature 30 °F 43 °F 59 °F (1999)
Min Temperature 26 °F 20 °F -5 °F (2006)
Degree Days  
Heating Degree Days 37 34  
Month to date heating degree days 756 796  
Since 1 July heating degree days 1374 1387  
Cooling Degree Days 0 0  
Month to date cooling degree days 0 0  
Year to date cooling degree days 891 643  
Moisture  
Dew Point 26 °F    
Average Humidity 92    
Maximum Humidity 100    
Minimum Humidity 84    
Precipitation  
Precipitation 0.00 in 0.02 in 0.05 in (1998)
Month to date precipitation 0.69 0.79  
Year to date precipitation 10.44 10.63  
Sea Level Pressure  
Sea Level Pressure 30.40 in    
Wind  
Wind Speed 2 mph (SE)    
Max Wind Speed 8 mph    
Max Gust Speed 9 mph    
Visibility 4 miles    
Events Fog    
T = Trace of Precipitation, MM = Missing Value Source: NWS Daily Summary

Daily Weather History Graph

Daily Weather History Graph

Search for Another Location

Airport:

Trip Planner

Search our weather history database for the weather conditions in past years. The results will help you decide how hot, cold, wet, or windy it might be!

Date:

Astronomy

Nov. 29, 2013 Rise Set
Actual Time 7:08 AM MST 4:51 PM MST
Civil Twilight 6:39 AM MST 5:20 PM MST
Nautical Twilight 6:06 AM MST 5:53 PM MST
Astronomical Twilight 5:34 AM MST 6:25 PM MST
Moon 3:19 AM MST 2:35 PM MST
Length of Visible Light 10h 41m
Length of Day
9h 42m
Waning Crescent, 13% of the Moon is Illuminated
Nov 29
Waning Crescent
Dec 2
New
Dec 9
First Quarter
Dec 17
Full
Dec 25
Last Quarter

Hourly Weather History & Observations

Time (MST) Temp. Windchill Dew Point Humidity Pressure Visibility Wind Dir Wind Speed Gust Speed Precip Events Conditions
12:53 AM 28.9 °F 25.2 °F 28.0 °F 96% 30.30 in 0.2 mi NW 3.5 mph - N/A Fog Light Freezing Fog
1:53 AM 28.9 °F - 28.0 °F 96% 30.30 in 0.2 mi Calm Calm - N/A Fog Light Freezing Fog
2:53 AM 28.9 °F 23.9 °F 28.0 °F 96% 30.30 in 0.2 mi SSE 4.6 mph - N/A Fog Light Freezing Fog
3:53 AM 27.0 °F 23.0 °F 27.0 °F 100% 30.32 in 0.5 mi ESE 3.5 mph - N/A Fog Light Freezing Fog
4:53 AM 27.0 °F - 26.1 °F 96% 30.35 in 0.5 mi Calm Calm - N/A Fog Light Freezing Fog
5:53 AM 27.0 °F 21.6 °F 25.0 °F 92% 30.38 in 0.5 mi South 4.6 mph - N/A Fog Light Freezing Fog
6:46 AM 28.0 °F 20.8 °F 24.1 °F 85% 30.37 in 1.2 mi SSE 6.9 mph - N/A   Overcast
6:48 AM 26.6 °F 19.1 °F 24.8 °F 93% 30.37 in 2.0 mi SSE 6.9 mph - N/A   Overcast
6:53 AM 27.0 °F 20.5 °F 24.1 °F 89% 30.40 in 3.0 mi SSE 5.8 mph - N/A   Overcast
7:00 AM 27.0 °F 23.0 °F 24.1 °F 89% 30.37 in 1.8 mi South 3.5 mph - N/A   Overcast
7:06 AM 27.0 °F 20.5 °F 23.0 °F 85% 30.38 in 1.0 mi SSE 5.8 mph - N/A   Overcast
7:16 AM 26.1 °F - 23.0 °F 88% 30.38 in 0.8 mi Calm Calm - N/A   Overcast
7:23 AM 26.1 °F - 23.0 °F 88% 30.38 in 1.0 mi Calm Calm - N/A   Overcast
7:32 AM 26.1 °F - 23.0 °F 88% 30.38 in 0.5 mi Calm Calm - N/A Fog Light Freezing Fog
7:53 AM 27.0 °F - 23.0 °F 85% 30.43 in 0.5 mi Calm Calm - N/A Fog Light Freezing Fog
8:53 AM 28.0 °F - 24.1 °F 85% 30.44 in 0.2 mi Calm Calm - N/A Fog Light Freezing Fog
9:53 AM 28.0 °F - 24.1 °F 85% 30.45 in 0.2 mi Calm Calm - N/A Fog Light Freezing Fog
10:53 AM 28.9 °F 25.2 °F 25.0 °F 85% 30.45 in 1.0 mi East 3.5 mph - N/A   Overcast
11:03 AM 30.0 °F 26.5 °F 26.1 °F 85% 30.41 in 1.2 mi Variable 3.5 mph - N/A   Overcast
11:11 AM 30.0 °F - 26.1 °F 85% 30.40 in 2.0 mi Calm Calm - N/A   Overcast
11:29 AM 30.0 °F - 25.0 °F 82% 30.39 in 3.0 mi Calm Calm - N/A   Haze
11:53 AM 28.9 °F 23.9 °F 26.1 °F 89% 30.43 in 4.0 mi East 4.6 mph - N/A   Overcast
12:53 PM 28.9 °F - 27.0 °F 92% 30.40 in 8.0 mi Calm Calm - N/A   Overcast
1:53 PM 28.9 °F - 26.1 °F 89% 30.39 in 9.0 mi Calm Calm - N/A   Overcast
2:05 PM 28.9 °F 25.2 °F 27.0 °F 92% 30.35 in 8.0 mi NW 3.5 mph - N/A   Overcast
2:53 PM 28.9 °F - 27.0 °F 92% 30.38 in 10.0 mi Calm Calm - N/A   Overcast
3:53 PM 28.9 °F 25.2 °F 27.0 °F 92% 30.40 in 10.0 mi NE 3.5 mph - N/A   Overcast
4:53 PM 28.9 °F - 27.0 °F 92% 30.41 in 10.0 mi Calm Calm - N/A   Overcast
5:33 PM 28.9 °F 25.2 °F 27.0 °F 92% 30.37 in 8.0 mi South 3.5 mph - N/A   Overcast
5:53 PM 28.9 °F 25.2 °F 27.0 °F 92% 30.42 in 8.0 mi SSE 3.5 mph - N/A   Overcast
6:53 PM 28.9 °F - 28.0 °F 96% 30.43 in 8.0 mi Calm Calm - N/A   Overcast
7:53 PM 28.9 °F - 28.0 °F 96% 30.45 in 8.0 mi Calm Calm - N/A   Overcast
8:53 PM 28.9 °F 22.8 °F 28.0 °F 96% 30.45 in 6.0 mi South 5.8 mph - N/A   Overcast
9:53 PM 28.9 °F 22.8 °F 28.0 °F 96% 30.45 in 4.0 mi SSE 5.8 mph - N/A   Overcast
10:41 PM 28.9 °F - 27.0 °F 92% 30.41 in 7.0 mi Calm Calm - N/A   Overcast
10:53 PM 28.9 °F 23.9 °F 27.0 °F 92% 30.45 in 8.0 mi East 4.6 mph - N/A   Overcast
11:15 PM 28.9 °F - 27.0 °F 92% 30.42 in 7.0 mi Calm Calm - N/A   Overcast
11:53 PM 28.0 °F 24.2 °F 26.1 °F 92% 30.46 in 8.0 mi SE 3.5 mph - N/A   Overcast